SCP
0 0 0 -0 -0 -0 -0 -0 -0 -0 -0 -0 -0 -0 -0 -0 -0 -0 -0 -0 -0 0 0 0 0 0 0 -0 -0 -0 -0 -0 -0 0 0 0 0 0 0 0 0 0 0
-0 0 0 0 0 -0 0 0 0 -0 -0 -0 -0 -0 -0 -0 -0 -0 -0 -0 -0 -0 -0 -0 -0 -0 -0 -0 -0 -0 -0 0 0 0 0 0 0 0 0 0 0 0 0
-0 0 0 0 -0 0 0 0 0 -0 -0 -0 -0 -0 -0 -0 -0 -0 -0 -0 -0 -0 -0 -0 -0 -0 -0 -0 -0 0 0 0 0 -0 -0 -0 0 0 0 0 0 0 0
0 0 0 -0 0 0 -0 0 0 -0 -0 -0 -0 -0 -0 -0 -0 -0 -0 -0 -0 -0 -0 -0 -0 -0 -0 -0 0 0 0 0 0 -0 0 0 0 0 0 0 0 0 1
0 0 0 0 0 0 0 0 0 0 -0 -0 -0 -0 -0 -0 -0 -0 0 -0 -0 -0 -0 -0 -0 -0 0 0 0 0 0 0 -0 -0 0 0 0 1 0 0 0 0 1
0 0 0 0 0 0 0 0 0 0 0 0 -0 -0 0 0 0 0 0 -0 -0 -0 -0 -0 0 0 0 0 0 0 0 0 -0 0 0 0 0 0 0 0 0 0 0
0 0 0 0 0 0 0 0 0 0 0 0 0 0 0 0 0 0 -0 -0 -0 0 0 0 0 0 0 0 0 0 0 0 0 0 0 0 0 0 1 1 0 0 0
0 0 1 0 0 0 0 0 0 0 0 0 0 0 0 0 0 -0 -0 0 0 0 0 0 0 0 0 0 0 0 0 0 -0 0 0 0 0 1 1 1 1 1 1
0 1 1 1 1 0 0 0 0 0 0 0 0 0 0 0 0 -0 0 0 0 0 0 0 0 0 0 0 0 0 0 0 0 -0 0 0 1 1 1 1 1 1 1
1 1 1 1 0 1 0 0 0 0 0 0 0 0 0 -0 -0 -0 0 0 0 0 0 0 0 0 0 0 0 0 0 0 0 0 0 1 2 1 1 1 1 1 2
1 0 0 0 1 1 0 0 0 0 0 0 0 0 0 0 0 0 0 -0 0 0 0 0 0 0 0 -0 -0 -0 -0 0 0 0 0 1 1 1 1 1 1 1 1
1 0 0 0 0 0 0 0 0 0 0 0 0 0 0 0 0 0 0 0 0 0 0 0 0 0 0 0 0 0 0 0 0 0 0 1 1 0 0 0 0 0 0
2 1 0 0 0 0 0 0 0 0 0 0 0 0 -0 0 0 0 0 0 0 0 0 0 0 0 0 0 0 0 0 0 -0 0 0 0 0 0 0 0 0 0 0
2 1 0 0 0 0 0 0 0 0 0 0 0 -0 -0 -0 0 0 0 0 0 0 -0 0 0 0 0 0 0 0 0 1 1 0 -0 0 0 0 0 0 0 0 0
2 1 0 0 0 0 0 0 0 0 0 0 0 0 0 0 0 -0 0 0 -0 0 -0 0 0 1 0 0 0 1 2 2 1 0 0 0 0 0 0 0 0 0 0
6 3 1 1 1 1 0 0 0 0 0 0 0 0 0 0 0 0 0 0 0 0 0 0 0 1 0 0 2 2 1 1 1 1 0 0 0 0 0 0 0 0 0
4 2 2 1 2 1 0 1 0 0 0 0 0 0 0 0 0 0 0 0 0 0 0 1 2 1 1 2 2 1 0 1 1 0 0 0 0 0 0 0 0 0 0
2 2 4 3 3 2 1 1 1 1 0 0 0 0 0 0 0 0 0 0 0 0 1 0 1 1 1 1 1 0 1 1 0 0 0 0 0 0 0 0 0 0 0
4 6 4 2 2 2 2 1 1 1 0 0 1 0 0 0 0 0 0 0 0 1 1 4 3 3 2 0 0 0 1 0 0 0 0 -0 0 0 0 0 0 0 0
7 6 4 3 3 3 2 2 2 1 0 0 1 1 0 0 1 0 0 2 3 2 3 4 3 2 1 0 0 0 0 0 1 0 0 0 0 0 0 0 0 0 0
5 6 4 -0 2 3 3 2 2 1 1 1 1 1 1 0 1 0 1 3 3 3 3 2 2 2 0 0 0 0 0 0 1 0 0 0 0 0 0 0 0 0 0
7 7 7 6 3 3 3 1 1 1 1 1 2 1 1 1 1 1 3 2 1 1 1 0 1 0 0 0 0 0 0 0 0 0 0 0 0 0 0 0 0 0 0
9 8 6 5 4 3 2 1 2 1 1 2 2 2 1 1 1 2 2 1 1 0 0 0 0 0 0 0 0 0 0 0 0 0 0 0 0 0 0 0 0 0 0
10 8 6 5 6 3 2 3 4 2 1 2 1 1 2 2 2 1 1 0 0 0 0 0 0 0 0 -0 0 0 0 -0 -0 -0 0 0 0 0 0 0 0 0 0
11 8 6 6 6 4 3 4 3 2 4 3 3 3 2 1 1 0 0 0 0 0 0 0 -0 0 -0 0 0 0 0 0 0 0 0 0 0 0 0 0 0 0 0
11 7 7 7 5 4 3 3 3 4 3 4 3 1 1 0 0 0 0 0 0 0 -0 -0 0 0 0 0 0 0 0 0 0 0 0 0 0 0 0 0 0 0 0
Wind_Speed_500mb
20 51 60 52 45 40 38 36 34 31 26 24 27 30 33 35 37 38 38 39 40 39 34 29 27 28 26 22 19 18 17 16 16 13 11 17 21 24 26 24 23 26 18
30 64 62 53 45 41 36 35 34 32 27 24 28 31 35 35 35 34 36 39 39 35 29 26 24 21 19 18 17 16 14 13 11 11 14 13 20 29 36 32 26 24 22
42 67 62 53 46 42 37 35 36 32 29 26 28 31 34 34 33 33 35 37 35 31 27 23 18 15 13 12 12 11 11 10 11 18 27 29 21 18 29 32 28 25 24
39 68 62 52 47 42 38 36 37 33 30 28 27 30 34 34 32 33 33 33 30 26 22 16 10 9 10 9 7 7 7 9 12 19 22 28 12 21 30 33 33 31 30
32 67 61 54 47 43 40 37 37 34 32 28 27 29 33 34 33 31 30 28 25 22 18 12 7 5 6 6 5 4 4 4 10 12 19 15 21 27 32 37 41 40 40
40 69 64 55 47 44 40 38 38 36 34 28 26 29 33 35 32 28 25 24 22 19 15 11 6 4 3 2 2 3 3 1 2 7 26 11 18 20 30 43 39 36 37
42 62 63 56 49 45 41 38 39 37 34 28 26 29 32 33 30 25 21 20 19 16 12 9 6 3 1 2 4 4 4 3 5 10 20 25 26 32 37 41 39 40 40
46 49 66 57 51 46 41 40 39 37 35 29 27 29 32 31 27 24 20 18 15 14 12 9 7 4 3 5 6 6 7 9 12 11 12 23 28 30 35 44 41 42 44
47 46 67 61 54 48 43 41 40 39 34 30 28 29 31 30 27 23 19 15 13 11 10 9 8 6 6 5 4 8 11 12 22 12 11 23 26 31 40 43 41 41 43
44 47 64 64 59 53 49 45 41 39 35 32 31 31 32 30 26 23 18 13 10 10 9 8 8 7 5 1 10 17 16 11 14 18 5 17 26 34 46 45 42 44 45
46 36 65 66 61 56 51 50 46 41 37 34 32 33 32 30 26 20 19 13 9 8 7 7 6 5 4 3 16 23 15 17 17 19 17 20 26 36 46 44 43 44 45
49 40 61 65 64 58 57 54 50 46 40 36 36 36 33 19 18 8 12 11 9 8 7 7 6 5 6 9 10 18 11 16 19 19 18 22 31 42 44 42 43 44 47
57 50 53 64 65 53 56 58 52 45 42 39 38 38 34 26 19 26 19 14 12 9 9 6 3 6 4 7 9 16 9 14 21 24 28 28 38 45 43 45 46 45 47
70 64 65 67 75 67 57 59 51 46 43 41 41 40 40 29 22 20 3 5 10 9 4 4 4 2 6 21 7 13 6 16 11 24 21 33 39 42 49 44 42 47 49
78 81 81 74 77 71 57 60 51 47 43 40 40 47 39 37 24 28 19 10 2 8 4 13 11 11 9 7 9 8 13 8 7 17 18 27 33 39 44 49 46 51 52
76 96 93 82 82 77 59 60 50 45 42 38 42 47 39 34 29 26 24 30 17 16 16 8 18 17 8 12 18 22 16 9 9 15 17 19 28 36 38 45 57 55 55
70 53 91 88 79 68 53 59 51 44 41 35 31 44 36 41 29 31 27 23 20 20 21 19 18 20 19 30 30 19 21 9 17 18 0 10 19 32 41 53 52 61 48
50 71 56 85 83 63 61 58 61 52 45 44 33 29 41 39 28 32 22 18 21 19 22 23 19 29 32 21 30 23 8 15 21 14 16 30 30 32 48 46 49 52 40
49 68 46 79 75 66 59 60 51 46 44 41 42 29 33 37 26 33 25 21 23 21 21 29 33 29 18 22 20 11 3 12 16 14 22 25 32 39 46 48 41 41 45
50 55 96 74 78 78 60 58 51 47 45 41 42 31 20 28 30 27 24 24 33 39 32 35 36 33 33 28 17 5 11 19 22 14 17 27 28 36 44 40 39 39 31
53 73 81 103 80 80 71 64 55 54 46 42 38 39 31 28 31 29 22 37 38 37 38 32 32 27 32 18 12 15 14 6 10 15 21 28 31 40 53 43 32 34 33
55 65 73 67 67 73 70 69 55 50 49 44 41 39 35 33 34 32 33 37 38 35 41 34 32 21 16 2 11 14 4 11 5 25 22 27 31 42 40 38 22 32 30
65 69 71 67 70 74 73 71 60 47 50 50 49 44 34 40 38 32 40 36 31 29 32 32 31 22 14 14 15 22 10 5 27 6 20 11 28 34 24 29 32 38 36
78 73 68 70 81 85 79 72 66 64 64 53 52 41 40 40 40 41 29 22 21 24 21 19 22 22 22 13 13 12 6 12 11 18 16 28 20 23 25 34 32 35 33
88 88 74 86 86 90 88 83 71 64 61 57 55 51 51 46 37 26 24 22 14 14 6 6 7 16 11 5 6 6 14 16 14 15 27 37 29 25 16 16 28 21 30
97 86 79 88 98 90 81 72 81 81 76 72 59 56 42 40 34 25 23 14 7 13 13 7 11 9 3 3 7 11 14 14 18 17 24 29 30 23 29 16 30 30 31
Wind_Direction_500mb
175 165 160 159 156 155 158 156 159 158 153 143 136 133 132 136 139 137 136 134 135 135 133 129 128 129 131 133 136 137 130 126 125 117 85 63 51 36 25 17 8 3 343
156 163 161 159 160 158 163 162 162 163 159 150 142 137 134 137 139 139 136 136 137 138 135 126 129 137 134 129 126 129 129 124 113 79 55 26 28 9 4 4 6 0 350
159 162 161 160 162 161 166 169 165 167 164 156 147 140 136 138 141 140 138 140 143 144 142 130 125 138 134 129 126 127 121 106 89 68 56 31 3 352 350 348 349 350 344
150 163 162 164 162 163 165 172 170 171 170 159 152 145 140 140 140 140 142 147 151 153 154 153 134 120 132 130 124 110 103 100 76 63 47 22 35 339 332 336 340 336 332
165 168 166 165 164 165 165 173 174 174 173 165 156 150 145 141 142 144 145 154 161 166 170 168 159 139 128 132 112 106 124 98 81 76 30 36 319 321 313 326 327 332 329
165 174 168 166 164 165 164 171 178 177 176 170 162 157 152 148 147 147 150 160 165 169 170 172 175 155 145 117 130 185 206 136 96 22 358 300 314 308 316 323 329 335 338
157 178 169 167 165 166 165 172 181 177 178 175 169 163 159 154 155 158 157 164 172 178 181 179 178 189 174 222 247 255 268 330 355 91 18 309 309 310 313 325 329 333 333
162 177 170 168 167 165 167 175 179 179 182 179 174 170 165 162 165 167 167 171 178 182 193 196 207 219 237 252 269 303 329 350 352 350 39 310 302 304 319 326 330 330 330
176 182 175 169 167 169 167 176 179 182 184 185 180 176 171 170 172 174 174 182 184 198 200 208 217 223 239 265 331 348 2 7 27 38 29 302 305 315 323 324 325 330 329
179 190 180 172 171 172 174 177 180 185 188 187 183 179 175 175 179 182 188 199 206 214 215 214 216 213 217 259 21 3 4 359 17 7 282 300 311 316 324 325 328 328 327
169 184 183 176 174 175 178 178 181 185 190 187 183 179 176 183 187 188 201 192 214 225 210 201 198 185 177 82 30 24 24 32 7 315 252 290 316 325 328 328 330 332 333
168 172 176 178 177 179 182 178 181 184 187 186 183 177 176 179 189 202 202 209 203 194 169 165 153 134 84 39 338 5 3 1 317 296 310 328 328 325 326 332 333 335 336
175 169 179 179 174 171 185 177 179 181 183 184 182 177 157 179 187 203 234 230 197 185 163 94 90 76 101 11 324 339 342 319 356 354 338 340 326 322 326 337 338 337 335
174 174 180 184 171 176 183 179 178 177 179 181 182 171 151 179 206 184 275 193 201 152 168 342 334 132 203 268 223 273 302 272 320 327 331 327 324 325 330 335 340 335 333
178 179 181 185 175 176 182 176 177 179 180 182 184 172 161 184 207 172 207 253 84 226 171 228 207 231 282 277 231 238 267 306 313 351 323 304 315 323 322 330 336 332 334
186 179 175 180 167 183 177 172 175 179 178 183 191 180 179 172 208 182 195 193 188 197 228 246 242 237 257 256 218 256 258 243 275 287 299 307 306 314 324 334 336 341 339
207 177 171 172 166 177 174 167 163 172 168 183 186 179 178 184 198 204 200 210 182 206 209 219 222 239 227 250 250 263 264 296 310 346 86 291 297 312 334 342 339 339 348
222 211 175 166 170 171 168 172 164 169 178 178 186 194 185 182 207 197 190 204 189 211 230 255 244 247 225 230 244 254 280 352 25 349 288 318 330 327 341 342 331 339 341
207 187 180 178 171 172 175 169 164 173 177 177 181 198 193 188 210 187 174 208 202 201 222 225 222 232 219 241 236 237 40 19 355 278 291 351 333 324 336 337 335 334 343
210 175 180 197 179 176 178 172 167 178 174 173 183 200 204 187 201 188 169 211 200 201 226 232 233 239 244 242 256 245 291 329 308 298 296 336 321 321 331 330 337 335 351
206 185 187 169 175 174 173 171 178 178 171 175 180 193 201 187 198 190 185 215 217 219 227 240 245 234 239 243 238 286 299 0 321 327 328 333 314 333 335 338 342 344 348
206 200 190 179 183 176 176 171 179 175 171 173 186 195 204 186 201 189 200 219 227 236 233 238 227 217 216 182 349 340 299 303 239 346 352 346 337 339 343 353 344 333 331
203 211 192 188 191 183 182 168 176 174 168 173 186 192 195 190 202 202 210 222 231 238 235 230 219 222 218 268 303 309 304 303 312 187 330 337 333 347 347 352 335 340 328
196 204 200 192 195 186 183 174 174 171 171 176 189 189 183 190 188 200 207 223 220 230 231 250 264 251 262 297 346 344 341 321 335 320 308 333 5 330 333 337 341 353 345
191 199 198 194 193 187 180 173 173 168 169 178 186 186 188 192 189 193 197 202 210 246 256 148 210 227 185 246 218 299 332 351 346 316 325 338 348 346 349 323 353 353 332
192 194 195 193 192 184 176 178 171 176 177 178 183 184 177 177 165 192 198 157 113 135 165 162 139 154 275 333 319 327 357 10 320 332 334 340 333 28 356 331 348 333 334
Wind_Speed_850mb
20 51 60 52 45 40 38 36 34 31 26 24 27 30 33 35 37 38 38 39 40 39 34 29 27 28 26 22 19 18 17 16 16 13 11 17 21 24 26 24 23 26 18
30 64 62 53 45 41 36 35 34 32 27 24 28 31 35 35 35 34 36 39 39 35 29 26 24 21 19 18 17 16 14 13 11 11 14 13 20 29 36 32 26 24 22
42 67 62 53 46 42 37 35 36 32 29 26 28 31 34 34 33 33 35 37 35 31 27 23 18 15 13 12 12 11 11 10 11 18 27 29 21 18 29 32 28 25 24
39 68 62 52 47 42 38 36 37 33 30 28 27 30 34 34 32 33 33 33 30 26 22 16 10 9 10 9 7 7 7 9 12 19 22 28 12 21 30 33 33 31 30
32 67 61 54 47 43 40 37 37 34 32 28 27 29 33 34 33 31 30 28 25 22 18 12 7 5 6 6 5 4 4 4 10 12 19 15 21 27 32 37 41 40 40
40 69 64 55 47 44 40 38 38 36 34 28 26 29 33 35 32 28 25 24 22 19 15 11 6 4 3 2 2 3 3 1 2 7 26 11 18 20 30 43 39 36 37
42 62 63 56 49 45 41 38 39 37 34 28 26 29 32 33 30 25 21 20 19 16 12 9 6 3 1 2 4 4 4 3 5 10 20 25 26 32 37 41 39 40 40
46 49 66 57 51 46 41 40 39 37 35 29 27 29 32 31 27 24 20 18 15 14 12 9 7 4 3 5 6 6 7 9 12 11 12 23 28 30 35 44 41 42 44
47 46 67 61 54 48 43 41 40 39 34 30 28 29 31 30 27 23 19 15 13 11 10 9 8 6 6 5 4 8 11 12 22 12 11 23 26 31 40 43 41 41 43
44 47 64 64 59 53 49 45 41 39 35 32 31 31 32 30 26 23 18 13 10 10 9 8 8 7 5 1 10 17 16 11 14 18 5 17 26 34 46 45 42 44 45
46 36 65 66 61 56 51 50 46 41 37 34 32 33 32 30 26 20 19 13 9 8 7 7 6 5 4 3 16 23 15 17 17 19 17 20 26 36 46 44 43 44 45
49 40 61 65 64 58 57 54 50 46 40 36 36 36 33 19 18 8 12 11 9 8 7 7 6 5 6 9 10 18 11 16 19 19 18 22 31 42 44 42 43 44 47
57 50 53 64 65 53 56 58 52 45 42 39 38 38 34 26 19 26 19 14 12 9 9 6 3 6 4 7 9 16 9 14 21 24 28 28 38 45 43 45 46 45 47
70 64 65 67 75 67 57 59 51 46 43 41 41 40 40 29 22 20 3 5 10 9 4 4 4 2 6 21 7 13 6 16 11 24 21 33 39 42 49 44 42 47 49
78 81 81 74 77 71 57 60 51 47 43 40 40 47 39 37 24 28 19 10 2 8 4 13 11 11 9 7 9 8 13 8 7 17 18 27 33 39 44 49 46 51 52
76 96 93 82 82 77 59 60 50 45 42 38 42 47 39 34 29 26 24 30 17 16 16 8 18 17 8 12 18 22 16 9 9 15 17 19 28 36 38 45 57 55 55
70 53 91 88 79 68 53 59 51 44 41 35 31 44 36 41 29 31 27 23 20 20 21 19 18 20 19 30 30 19 21 9 17 18 0 10 19 32 41 53 52 61 48
50 71 56 85 83 63 61 58 61 52 45 44 33 29 41 39 28 32 22 18 21 19 22 23 19 29 32 21 30 23 8 15 21 14 16 30 30 32 48 46 49 52 40
49 68 46 79 75 66 59 60 51 46 44 41 42 29 33 37 26 33 25 21 23 21 21 29 33 29 18 22 20 11 3 12 16 14 22 25 32 39 46 48 41 41 45
50 55 96 74 78 78 60 58 51 47 45 41 42 31 20 28 30 27 24 24 33 39 32 35 36 33 33 28 17 5 11 19 22 14 17 27 28 36 44 40 39 39 31
53 73 81 103 80 80 71 64 55 54 46 42 38 39 31 28 31 29 22 37 38 37 38 32 32 27 32 18 12 15 14 6 10 15 21 28 31 40 53 43 32 34 33
55 65 73 67 67 73 70 69 55 50 49 44 41 39 35 33 34 32 33 37 38 35 41 34 32 21 16 2 11 14 4 11 5 25 22 27 31 42 40 38 22 32 30
65 69 71 67 70 74 73 71 60 47 50 50 49 44 34 40 38 32 40 36 31 29 32 32 31 22 14 14 15 22 10 5 27 6 20 11 28 34 24 29 32 38 36
78 73 68 70 81 85 79 72 66 64 64 53 52 41 40 40 40 41 29 22 21 24 21 19 22 22 22 13 13 12 6 12 11 18 16 28 20 23 25 34 32 35 33
88 88 74 86 86 90 88 83 71 64 61 57 55 51 51 46 37 26 24 22 14 14 6 6 7 16 11 5 6 6 14 16 14 15 27 37 29 25 16 16 28 21 30
97 86 79 88 98 90 81 72 81 81 76 72 59 56 42 40 34 25 23 14 7 13 13 7 11 9 3 3 7 11 14 14 18 17 24 29 30 23 29 16 30 30 31
Wind_Direction_850mb
175 165 160 159 156 155 158 156 159 158 153 143 136 133 132 136 139 137 136 134 135 135 133 129 128 129 131 133 136 137 130 126 125 117 85 63 51 36 25 17 8 3 343
156 163 161 159 160 158 163 162 162 163 159 150 142 137 134 137 139 139 136 136 137 138 135 126 129 137 134 129 126 129 129 124 113 79 55 26 28 9 4 4 6 0 350
159 162 161 160 162 161 166 169 165 167 164 156 147 140 136 138 141 140 138 140 143 144 142 130 125 138 134 129 126 127 121 106 89 68 56 31 3 352 350 348 349 350 344
150 163 162 164 162 163 165 172 170 171 170 159 152 145 140 140 140 140 142 147 151 153 154 153 134 120 132 130 124 110 103 100 76 63 47 22 35 339 332 336 340 336 332
165 168 166 165 164 165 165 173 174 174 173 165 156 150 145 141 142 144 145 154 161 166 170 168 159 139 128 132 112 106 124 98 81 76 30 36 319 321 313 326 327 332 329
165 174 168 166 164 165 164 171 178 177 176 170 162 157 152 148 147 147 150 160 165 169 170 172 175 155 145 117 130 185 206 136 96 22 358 300 314 308 316 323 329 335 338
157 178 169 167 165 166 165 172 181 177 178 175 169 163 159 154 155 158 157 164 172 178 181 179 178 189 174 222 247 255 268 330 355 91 18 309 309 310 313 325 329 333 333
162 177 170 168 167 165 167 175 179 179 182 179 174 170 165 162 165 167 167 171 178 182 193 196 207 219 237 252 269 303 329 350 352 350 39 310 302 304 319 326 330 330 330
176 182 175 169 167 169 167 176 179 182 184 185 180 176 171 170 172 174 174 182 184 198 200 208 217 223 239 265 331 348 2 7 27 38 29 302 305 315 323 324 325 330 329
179 190 180 172 171 172 174 177 180 185 188 187 183 179 175 175 179 182 188 199 206 214 215 214 216 213 217 259 21 3 4 359 17 7 282 300 311 316 324 325 328 328 327
169 184 183 176 174 175 178 178 181 185 190 187 183 179 176 183 187 188 201 192 214 225 210 201 198 185 177 82 30 24 24 32 7 315 252 290 316 325 328 328 330 332 333
168 172 176 178 177 179 182 178 181 184 187 186 183 177 176 179 189 202 202 209 203 194 169 165 153 134 84 39 338 5 3 1 317 296 310 328 328 325 326 332 333 335 336
175 169 179 179 174 171 185 177 179 181 183 184 182 177 157 179 187 203 234 230 197 185 163 94 90 76 101 11 324 339 342 319 356 354 338 340 326 322 326 337 338 337 335
174 174 180 184 171 176 183 179 178 177 179 181 182 171 151 179 206 184 275 193 201 152 168 342 334 132 203 268 223 273 302 272 320 327 331 327 324 325 330 335 340 335 333
178 179 181 185 175 176 182 176 177 179 180 182 184 172 161 184 207 172 207 253 84 226 171 228 207 231 282 277 231 238 267 306 313 351 323 304 315 323 322 330 336 332 334
186 179 175 180 167 183 177 172 175 179 178 183 191 180 179 172 208 182 195 193 188 197 228 246 242 237 257 256 218 256 258 243 275 287 299 307 306 314 324 334 336 341 339
207 177 171 172 166 177 174 167 163 172 168 183 186 179 178 184 198 204 200 210 182 206 209 219 222 239 227 250 250 263 264 296 310 346 86 291 297 312 334 342 339 339 348
222 211 175 166 170 171 168 172 164 169 178 178 186 194 185 182 207 197 190 204 189 211 230 255 244 247 225 230 244 254 280 352 25 349 288 318 330 327 341 342 331 339 341
207 187 180 178 171 172 175 169 164 173 177 177 181 198 193 188 210 187 174 208 202 201 222 225 222 232 219 241 236 237 40 19 355 278 291 351 333 324 336 337 335 334 343
210 175 180 197 179 176 178 172 167 178 174 173 183 200 204 187 201 188 169 211 200 201 226 232 233 239 244 242 256 245 291 329 308 298 296 336 321 321 331 330 337 335 351
206 185 187 169 175 174 173 171 178 178 171 175 180 193 201 187 198 190 185 215 217 219 227 240 245 234 239 243 238 286 299 0 321 327 328 333 314 333 335 338 342 344 348
206 200 190 179 183 176 176 171 179 175 171 173 186 195 204 186 201 189 200 219 227 236 233 238 227 217 216 182 349 340 299 303 239 346 352 346 337 339 343 353 344 333 331
203 211 192 188 191 183 182 168 176 174 168 173 186 192 195 190 202 202 210 222 231 238 235 230 219 222 218 268 303 309 304 303 312 187 330 337 333 347 347 352 335 340 328
196 204 200 192 195 186 183 174 174 171 171 176 189 189 183 190 188 200 207 223 220 230 231 250 264 251 262 297 346 344 341 321 335 320 308 333 5 330 333 337 341 353 345
191 199 198 194 193 187 180 173 173 168 169 178 186 186 188 192 189 193 197 202 210 246 256 148 210 227 185 246 218 299 332 351 346 316 325 338 348 346 349 323 353 353 332
192 194 195 193 192 184 176 178 171 176 177 178 183 184 177 177 165 192 198 157 113 135 165 162 139 154 275 333 319 327 357 10 320 332 334 340 333 28 356 331 348 333 334